| time (UTC) | temp C | wind direction | speed KPH | gust KPH | rain 1hr cm | rain 24hr cm | rain mn cm | humidity % | barometer mb |
| 20260504214519 | 26 | 56 | 6.4 | 14.5 | 0.00 | 0.28 | 0.25 | 71 | 1013.1 |
| 20260504213020 | 26 | 174 | 3.2 | 14.5 | 0.00 | 0.28 | 0.25 | 71 | 1013.3 |
| 20260504211525 | 26 | 64 | 6.4 | 22.5 | 0.00 | 0.28 | 0.25 | 71 | 1013.5 |
| 20260504210011 | 27 | 37 | 3.2 | 12.9 | 0.00 | 0.28 | 0.25 | 71 | 1013.5 |
| 20260504204512 | 27 | 56 | 9.7 | 17.7 | 0.00 | 0.28 | 0.25 | 70 | 1013.5 |
| 20260504203018 | 27 | 70 | 8.0 | 16.1 | 0.00 | 0.28 | 0.25 | 71 | 1013.7 |
| 20260504200025 | 27 | 56 | 6.4 | 19.3 | 0.00 | 0.28 | 0.25 | 70 | 1013.8 |
| 20260504194510 | 27 | 49 | 6.4 | 16.1 | 0.00 | 0.28 | 0.25 | 70 | 1014.0 |
| 20260504193017 | 27 | 61 | 8.0 | 24.1 | 0.00 | 0.28 | 0.25 | 72 | 1014.3 |
| 20260504191523 | 27 | 39 | 9.7 | 20.9 | 0.00 | 0.28 | 0.25 | 73 | 1014.4 |
| 20260504190004 | 27 | 19 | 11.3 | 22.5 | 0.00 | 0.28 | 0.25 | 72 | 1014.6 |
| 20260504184505 | 26 | 62 | 9.7 | 17.7 | 0.00 | 0.28 | 0.25 | 74 | 1014.7 |
| 20260504183005 | 27 | 232 | 4.8 | 17.7 | 0.00 | 0.28 | 0.25 | 72 | 1014.9 |
| 20260504181504 | 27 | 61 | 6.4 | 12.9 | 0.00 | 0.28 | 0.25 | 71 | 1015.1 |
| 20260504180007 | 27 | 58 | 3.2 | 11.3 | 0.00 | 0.28 | 0.25 | 73 | 1015.1 |
| 20260504174504 | 26 | 22 | 1.6 | 12.9 | 0.00 | 0.28 | 0.25 | 73 | 1015.1 |
| 20260504173006 | 27 | 39 | 4.8 | 14.5 | 0.00 | 0.28 | 0.25 | 72 | 1015.2 |
| 20260504171504 | 28 | 75 | 3.2 | 11.3 | 0.00 | 0.28 | 0.25 | 71 | 1015.3 |
| 20260504081515 | 21 | 269 | 0.0 | 1.6 | 0.10 | 1.27 | 0.25 | 95 | 1013.7 |
| 20260504044514 | 22 | 43 | 0.0 | 1.6 | 0.00 | 1.02 | 0.00 | 92 | 1015.5 |
| 20260504043020 | 22 | 43 | 0.0 | 1.6 | 0.00 | 1.02 | 0.00 | 91 | 1015.5 |
| 20260504041523 | 23 | 43 | 0.0 | 1.6 | 0.00 | 1.02 | 0.00 | 89 | 1015.4 |
| 20260504040025 | 23 | 43 | 0.0 | 1.6 | 0.00 | 1.02 | 0.00 | 88 | 1015.5 |
| 20260504034526 | 23 | 43 | 0.0 | 3.2 | 0.00 | 1.02 | 1.02 | 88 | 1015.5 |
| 20260504033013 | 23 | 32 | 0.0 | 3.2 | 0.00 | 1.02 | 1.02 | 87 | 1015.5 |
| 20260504031523 | 23 | 50 | 0.0 | 4.8 | 0.00 | 1.02 | 1.02 | 87 | 1015.6 |
| 20260504030023 | 23 | 67 | 0.0 | 4.8 | 0.00 | 1.02 | 1.02 | 87 | 1015.7 |
| 20260504024524 | 23 | 65 | 0.0 | 1.6 | 0.00 | 1.02 | 1.02 | 86 | 1015.8 |
| 20260504023030 | 23 | 71 | 0.0 | 4.8 | 0.03 | 1.02 | 1.02 | 86 | 1015.7 |
| 20260504021528 | 23 | 53 | 0.0 | 4.8 | 0.03 | 1.02 | 1.02 | 86 | 1015.4 |
| 20260504020019 | 23 | 57 | 0.0 | 3.2 | 0.03 | 1.02 | 1.02 | 87 | 1015.4 |
| 20260504014522 | 23 | 96 | 0.0 | 4.8 | 0.03 | 1.02 | 1.02 | 87 | 1015.5 |
| 20260504013033 | 23 | 81 | 0.0 | 6.4 | 0.00 | 0.99 | 0.99 | 87 | 1015.5 |
| 20260504011529 | 23 | 300 | 0.0 | 1.6 | 0.00 | 0.99 | 0.99 | 88 | 1015.3 |
| 20260504010030 | 24 | 300 | 0.0 | 1.6 | 0.00 | 0.99 | 0.99 | 86 | 1015.1 |
| 20260504004526 | 24 | 311 | 0.0 | 1.6 | 0.00 | 0.99 | 0.99 | 85 | 1014.8 |
| 20260504003006 | 25 | 315 | 0.0 | 0.0 | 0.00 | 0.99 | 0.99 | 83 | 1014.7 |
| 20260504001508 | 25 | 335 | 0.0 | 1.6 | 0.00 | 0.99 | 0.99 | 82 | 1014.9 |
| 20260504000033 | 25 | 63 | 0.0 | 6.4 | 0.00 | 0.99 | 0.99 | 82 | 1014.7 |
| 20260503234503 | 25 | 11 | 0.0 | 6.4 | 0.00 | 0.99 | 0.99 | 82 | 1014.2 |
| 20260503233007 | 25 | 73 | 1.6 | 4.8 | 0.00 | 0.99 | 0.99 | 81 | 1014.1 |
| 20260503231505 | 25 | 359 | 0.0 | 4.8 | 0.00 | 0.99 | 0.99 | 81 | 1014.2 |
| 20260503230011 | 26 | 298 | 0.0 | 1.6 | 0.00 | 0.99 | 0.99 | 81 | 1014.3 |
| 20260503224516 | 26 | 306 | 0.0 | 1.6 | 0.00 | 0.99 | 0.99 | 81 | 1014.2 |
| 20260503223005 | 25 | 289 | 0.0 | 3.2 | 0.00 | 0.99 | 0.99 | 83 | 1014.1 |
| 20260503221502 | 25 | 304 | 0.0 | 6.4 | 0.00 | 0.99 | 0.99 | 83 | 1014.2 |
| 20260503220007 | 26 | 55 | 0.0 | 1.6 | 0.00 | 0.99 | 0.99 | 81 | 1014.1 |